DLH7CH EDDL-EDDM

Flight info

Callsign DLH7CH
Flight time N/A
Altitude 33000
Route DODEN7Z DODEN Y853 BOMBI T104 HAREM/N0422F270 T104 ROKIL ROKIL1B
Aircraft A321/M-SDE3FGHIRWY/LB1

Departure

Time 2026-05-05 18:31
Airport Düsseldorf Airport (EDDL)

Arrival

Time N/A
Airport Munich Airport (EDDM)
Time Latitude Longitude Altitude Speed Heading
2026-05-05 17:59 51.28072 6.76290 124 ft 0 kts 185°
2026-05-05 18:22 51.28094 6.76295 127 ft 4 kts 189°
2026-05-05 18:22 51.28121 6.76303 127 ft 4 kts 195°
2026-05-05 18:22 51.28147 6.76316 128 ft 4 kts 201°
2026-05-05 18:23 51.28171 6.76333 123 ft 4 kts 208°
2026-05-05 18:23 51.28194 6.76355 123 ft 4 kts 218°
2026-05-05 18:23 51.28213 6.76383 123 ft 2 kts 232°
2026-05-05 18:23 51.28214 6.76386 123 ft 1 kts 233°
2026-05-05 18:26 51.28212 6.76382 127 ft 3 kts 233°
2026-05-05 18:26 51.28187 6.76315 126 ft 9 kts 254°
2026-05-05 18:27 51.28201 6.76204 125 ft 12 kts 273°
2026-05-05 18:27 51.28160 6.76086 121 ft 13 kts 232°
2026-05-05 18:27 51.28105 6.75974 127 ft 13 kts 231°
2026-05-05 18:27 51.28047 6.75851 125 ft 16 kts 233°
2026-05-05 18:28 51.27897 6.75536 121 ft 19 kts 232°
2026-05-05 18:28 51.27849 6.75372 121 ft 17 kts 284°
2026-05-05 18:28 51.27949 6.75280 117 ft 19 kts 359°
2026-05-05 18:29 51.28036 6.75363 115 ft 0 kts 52°
2026-05-05 18:30 51.28049 6.75388 117 ft 12 kts 52°
2026-05-05 18:30 51.28252 6.75810 121 ft 84 kts 53°
2026-05-05 18:30 51.28742 6.76840 132 ft 145 kts 52°
2026-05-05 18:30 51.29431 6.78222 537 ft 162 kts 50°
2026-05-05 18:31 51.30112 6.79695 1241 ft 167 kts 51°
2026-05-05 18:31 51.30826 6.81219 1743 ft 179 kts 52°
2026-05-05 18:31 51.31604 6.82905 2034 ft 199 kts 53°
2026-05-05 18:31 51.32490 6.84783 2223 ft 224 kts 52°
2026-05-05 18:32 51.33480 6.86865 2585 ft 246 kts 53°
2026-05-05 18:32 51.34472 6.89139 3267 ft 252 kts 62°
2026-05-05 18:32 51.35057 6.91801 3933 ft 258 kts 80°
2026-05-05 18:32 51.35104 6.94692 4661 ft 264 kts 98°
2026-05-05 18:33 51.34804 6.97613 5353 ft 268 kts 99°
2026-05-05 18:33 51.34500 7.00572 6071 ft 272 kts 99°
2026-05-05 18:33 51.34128 7.03557 6737 ft 276 kts 110°
2026-05-05 18:33 51.33159 7.06201 7405 ft 278 kts 134°
2026-05-05 18:34 51.32228 7.07620 7854 ft 280 kts 138°
2026-05-05 18:34 51.30776 7.09724 8556 ft 283 kts 139°
2026-05-05 18:34 51.29303 7.11839 9268 ft 286 kts 139°
2026-05-05 18:34 51.27812 7.13971 9941 ft 289 kts 139°
2026-05-05 18:35 51.26268 7.16181 10174 ft 310 kts 138°
2026-05-05 18:35 51.24608 7.18563 10299 ft 331 kts 138°
2026-05-05 18:35 51.22850 7.21093 10515 ft 347 kts 138°
2026-05-05 18:35 51.21045 7.23689 11045 ft 351 kts 138°
2026-05-05 18:36 51.19223 7.26307 11629 ft 354 kts 138°
2026-05-05 18:36 51.17384 7.28947 12242 ft 357 kts 138°
2026-05-05 18:36 51.15534 7.31594 12869 ft 359 kts 139°
2026-05-05 18:36 51.13663 7.34262 13467 ft 361 kts 139°
2026-05-05 18:37 51.11787 7.36939 14041 ft 363 kts 139°
2026-05-05 18:37 51.09918 7.39603 14526 ft 367 kts 139°
2026-05-05 18:37 51.08006 7.42323 15005 ft 371 kts 139°
2026-05-05 18:37 51.06073 7.45065 15521 ft 373 kts 139°
2026-05-05 18:38 51.04132 7.47816 16035 ft 376 kts 139°
2026-05-05 18:38 51.02172 7.50592 16581 ft 378 kts 139°
2026-05-05 18:38 51.00203 7.53379 17118 ft 380 kts 139°
2026-05-05 18:38 50.98224 7.56181 17630 ft 382 kts 139°
2026-05-05 18:39 50.96234 7.58996 18132 ft 384 kts 139°
2026-05-05 18:39 50.94232 7.61825 18573 ft 386 kts 139°
2026-05-05 18:39 50.92220 7.64660 19001 ft 387 kts 139°
2026-05-05 18:39 50.90201 7.67499 19438 ft 389 kts 139°
2026-05-05 18:40 50.88174 7.70346 19862 ft 391 kts 139°
2026-05-05 18:40 50.86132 7.73216 20294 ft 393 kts 139°
2026-05-05 18:40 50.84084 7.76097 20713 ft 395 kts 139°
2026-05-05 18:40 50.82030 7.78991 21135 ft 396 kts 139°
2026-05-05 18:41 50.79962 7.81889 21552 ft 398 kts 139°
2026-05-05 18:41 50.77880 7.84797 21961 ft 400 kts 139°
2026-05-05 18:41 50.75791 7.87717 22363 ft 402 kts 139°
2026-05-05 18:41 50.73689 7.90653 22775 ft 404 kts 139°
2026-05-05 18:42 50.71576 7.93600 23179 ft 406 kts 139°
2026-05-05 18:42 50.69448 7.96557 23531 ft 408 kts 138°
2026-05-05 18:42 50.67312 7.99523 23858 ft 410 kts 139°
2026-05-05 18:42 50.65166 8.02495 24197 ft 412 kts 139°
2026-05-05 18:43 50.63000 8.05488 24538 ft 413 kts 139°
2026-05-05 18:43 50.60835 8.08479 24894 ft 415 kts 139°
2026-05-05 18:43 50.58653 8.11463 25240 ft 416 kts 140°
2026-05-05 18:43 50.56438 8.14407 25572 ft 418 kts 140°
2026-05-05 18:44 50.54193 8.17335 25911 ft 419 kts 141°
2026-05-05 18:44 50.51937 8.20251 26242 ft 421 kts 141°
2026-05-05 18:44 50.49667 8.23181 26574 ft 422 kts 141°
2026-05-05 18:44 50.47394 8.26124 26906 ft 424 kts 141°
2026-05-05 18:45 50.45120 8.29089 27239 ft 425 kts 140°
2026-05-05 18:45 50.42843 8.32065 27564 ft 427 kts 140°
2026-05-05 18:45 50.40590 8.35008 27853 ft 428 kts 140°
2026-05-05 18:45 50.38293 8.38006 28169 ft 430 kts 140°
2026-05-05 18:46 50.35988 8.41010 28448 ft 431 kts 140°
2026-05-05 18:46 50.33675 8.44012 28741 ft 433 kts 140°
2026-05-05 18:46 50.31348 8.47018 28984 ft 434 kts 140°
2026-05-05 18:46 50.29016 8.50026 29234 ft 435 kts 140°
2026-05-05 18:47 50.26673 8.53050 29495 ft 436 kts 140°
2026-05-05 18:47 50.24343 8.56062 29848 ft 435 kts 140°
2026-05-05 18:47 50.22014 8.59069 30170 ft 433 kts 140°
2026-05-05 18:47 50.19693 8.62060 30467 ft 432 kts 140°
2026-05-05 18:48 50.17374 8.65042 30770 ft 430 kts 141°
2026-05-05 18:48 50.15071 8.67998 31069 ft 429 kts 141°
2026-05-05 18:48 50.12792 8.70916 31366 ft 427 kts 141°
2026-05-05 18:48 50.10498 8.73850 31669 ft 426 kts 141°
2026-05-05 18:49 50.08214 8.76772 31970 ft 425 kts 141°
2026-05-05 18:49 50.05932 8.79688 32211 ft 425 kts 141°
2026-05-05 18:49 50.03676 8.82658 32476 ft 424 kts 139°
2026-05-05 18:49 50.01476 8.85714 32736 ft 424 kts 138°
2026-05-05 18:50 49.97192 8.91902 32825 ft 416 kts 137°
2026-05-05 18:50 49.92957 8.98010 32830 ft 415 kts 138°
2026-05-05 18:51 49.88692 9.04033 32843 ft 414 kts 139°
2026-05-05 18:51 49.84414 9.10011 32828 ft 414 kts 139°
2026-05-05 18:52 49.80114 9.16010 32847 ft 417 kts 139°
2026-05-05 18:52 49.75795 9.22040 32845 ft 418 kts 139°
2026-05-05 18:53 49.71474 9.28063 32841 ft 418 kts 139°
2026-05-05 18:53 49.67147 9.34076 32842 ft 418 kts 139°
2026-05-05 18:54 49.62840 9.40042 32844 ft 419 kts 139°
2026-05-05 18:54 49.58871 9.46641 32824 ft 420 kts 132°
2026-05-05 18:55 49.55020 9.53421 32833 ft 421 kts 133°
2026-05-05 18:55 49.51139 9.60219 32830 ft 423 kts 133°
2026-05-05 18:56 49.47247 9.67010 32788 ft 423 kts 133°
2026-05-05 18:56 49.45311 9.70389 32123 ft 422 kts 133°
2026-05-05 18:56 49.43362 9.73784 31379 ft 423 kts 133°
2026-05-05 18:57 49.41408 9.77177 30852 ft 426 kts 133°
2026-05-05 18:57 49.39431 9.80609 30325 ft 429 kts 133°
2026-05-05 18:57 49.37449 9.84048 29806 ft 430 kts 133°
2026-05-05 18:57 49.35496 9.87431 29189 ft 428 kts 133°
2026-05-05 18:58 49.33526 9.90832 28602 ft 425 kts 133°
2026-05-05 18:58 49.31573 9.94211 28042 ft 422 kts 134°
2026-05-05 18:58 49.29626 9.97565 27479 ft 420 kts 134°
2026-05-05 18:58 49.27687 10.00899 26930 ft 418 kts 134°
2026-05-05 18:59 49.25756 10.04213 26390 ft 416 kts 134°
2026-05-05 18:59 49.23832 10.07502 25860 ft 413 kts 134°
2026-05-05 18:59 49.21923 10.10762 25341 ft 411 kts 134°
2026-05-05 18:59 49.20024 10.14011 24957 ft 408 kts 134°
2026-05-05 19:00 49.18122 10.17263 24832 ft 407 kts 134°
2026-05-05 19:00 49.16242 10.20470 24868 ft 408 kts 134°
2026-05-05 19:00 49.14352 10.23693 24858 ft 407 kts 134°
2026-05-05 19:00 49.12440 10.26891 24865 ft 407 kts 135°
2026-05-05 19:01 49.10499 10.30043 24878 ft 407 kts 136°
2026-05-05 19:01 49.08545 10.33166 24876 ft 407 kts 136°
2026-05-05 19:01 49.06586 10.36274 24876 ft 407 kts 136°
2026-05-05 19:01 49.04624 10.39384 24873 ft 407 kts 136°
2026-05-05 19:02 49.02663 10.42501 24870 ft 407 kts 136°
2026-05-05 19:02 49.00710 10.45618 24735 ft 404 kts 136°
2026-05-05 19:02 48.98782 10.48707 24228 ft 399 kts 136°
2026-05-05 19:02 48.96867 10.51764 23789 ft 400 kts 136°
2026-05-05 19:03 48.94941 10.54823 23307 ft 400 kts 136°
2026-05-05 19:03 48.93019 10.57878 22750 ft 398 kts 136°
2026-05-05 19:03 48.91108 10.60918 22193 ft 397 kts 136°
2026-05-05 19:03 48.89231 10.63904 21668 ft 394 kts 135°
2026-05-05 19:04 48.87344 10.66916 21138 ft 392 kts 136°
2026-05-05 19:04 48.85469 10.69894 20629 ft 389 kts 136°
2026-05-05 19:04 48.83598 10.72854 20109 ft 387 kts 136°
2026-05-05 19:04 48.81739 10.75792 19621 ft 385 kts 136°
2026-05-05 19:05 48.79890 10.78712 19124 ft 383 kts 136°
2026-05-05 19:05 48.78053 10.81605 18659 ft 378 kts 136°
2026-05-05 19:05 48.76238 10.84468 18130 ft 375 kts 134°
2026-05-05 19:05 48.74747 10.87710 17502 ft 375 kts 121°
2026-05-05 19:06 48.73511 10.91181 16857 ft 373 kts 120°
2026-05-05 19:06 48.72291 10.94637 16227 ft 371 kts 120°
2026-05-05 19:06 48.71080 10.98083 15633 ft 369 kts 121°
2026-05-05 19:06 48.69881 11.01503 15061 ft 367 kts 121°
2026-05-05 19:07 48.68689 11.04895 14504 ft 364 kts 121°
2026-05-05 19:07 48.67497 11.08273 13962 ft 362 kts 121°
2026-05-05 19:07 48.66317 11.11610 13396 ft 359 kts 121°
2026-05-05 19:07 48.65140 11.14933 12781 ft 357 kts 121°
2026-05-05 19:08 48.63970 11.18233 12195 ft 355 kts 122°
2026-05-05 19:08 48.62807 11.21506 11607 ft 352 kts 122°
2026-05-05 19:08 48.61650 11.24754 11052 ft 350 kts 122°
2026-05-05 19:08 48.60497 11.27978 10824 ft 350 kts 122°
2026-05-05 19:09 48.59336 11.31215 10813 ft 351 kts 122°
2026-05-05 19:09 48.58171 11.34467 10816 ft 351 kts 122°
2026-05-05 19:09 48.57025 11.37672 10817 ft 351 kts 122°
2026-05-05 19:09 48.55867 11.40903 10821 ft 350 kts 122°
2026-05-05 19:10 48.54706 11.44143 10818 ft 351 kts 122°
2026-05-05 19:10 48.53547 11.47376 10820 ft 350 kts 122°
2026-05-05 19:10 48.52385 11.50612 10820 ft 351 kts 122°
2026-05-05 19:10 48.51217 11.53850 10835 ft 351 kts 122°
2026-05-05 19:11 48.50051 11.57077 10839 ft 351 kts 122°
2026-05-05 19:11 48.48881 11.60314 10831 ft 351 kts 121°
2026-05-05 19:11 48.47715 11.63539 10838 ft 351 kts 121°
2026-05-05 19:11 48.46611 11.66821 10838 ft 352 kts 116°
2026-05-05 19:12 48.45779 11.70298 10836 ft 354 kts 108°
2026-05-05 19:12 48.45260 11.73934 10834 ft 354 kts 99°
2026-05-05 19:12 48.45064 11.77626 10836 ft 354 kts 92°
2026-05-05 19:12 48.45164 11.81311 10538 ft 351 kts 85°
2026-05-05 19:13 48.45439 11.84956 9985 ft 348 kts 85°
2026-05-05 19:13 48.45715 11.88543 9677 ft 338 kts 85°
2026-05-05 19:13 48.45980 11.91982 9547 ft 323 kts 85°
2026-05-05 19:13 48.46230 11.95280 9276 ft 314 kts 85°
2026-05-05 19:14 48.46473 11.98526 8665 ft 318 kts 85°
2026-05-05 19:14 48.46720 12.01863 8024 ft 323 kts 84°
2026-05-05 19:14 48.46971 12.05244 7401 ft 326 kts 84°
2026-05-05 19:14 48.47224 12.08676 6692 ft 332 kts 84°
2026-05-05 19:15 48.47483 12.12155 5948 ft 337 kts 83°
2026-05-05 19:15 48.47710 12.15689 5206 ft 341 kts 89°
2026-05-05 19:15 48.47270 12.19116 4910 ft 328 kts 114°
2026-05-05 19:15 48.46023 12.21825 4807 ft 302 kts 140°
2026-05-05 19:16 48.44298 12.23313 4826 ft 279 kts 167°
2026-05-05 19:16 48.42398 12.23692 4824 ft 273 kts 189°
2026-05-05 19:16 48.40692 12.22771 4830 ft 250 kts 221°
2026-05-05 19:16 48.39692 12.20846 4853 ft 228 kts 251°
2026-05-05 19:17 48.39377 12.18524 4837 ft 226 kts 265°
2026-05-05 19:17 48.39221 12.16201 4833 ft 226 kts 266°
2026-05-05 19:17 48.39059 12.13885 4827 ft 219 kts 265°
2026-05-05 19:17 48.38897 12.11666 4832 ft 207 kts 265°
2026-05-05 19:18 48.38741 12.09544 4844 ft 202 kts 265°
2026-05-05 19:18 48.38587 12.07449 4714 ft 199 kts 265°
2026-05-05 19:18 48.38438 12.05441 4504 ft 188 kts 265°
2026-05-05 19:18 48.38298 12.03568 4272 ft 176 kts 265°
2026-05-05 19:19 48.38164 12.01757 4034 ft 173 kts 265°
2026-05-05 19:19 48.38074 12.00548 3881 ft 172 kts 265°
2026-05-05 19:19 48.37941 11.98764 3649 ft 171 kts 265°
2026-05-05 19:19 48.37811 11.97014 3429 ft 170 kts 266°
2026-05-05 19:20 48.37678 11.95245 3204 ft 170 kts 265°
2026-05-05 19:20 48.37546 11.93479 2966 ft 170 kts 266°
2026-05-05 19:20 48.37418 11.91791 2756 ft 153 kts 266°
2026-05-05 19:20 48.37300 11.90226 2551 ft 151 kts 266°
2026-05-05 19:21 48.37181 11.88639 2353 ft 154 kts 265°
2026-05-05 19:21 48.37058 11.87019 2142 ft 156 kts 265°
2026-05-05 19:21 48.36935 11.85393 1934 ft 159 kts 265°
2026-05-05 19:21 48.36875 11.83978 1724 ft 121 kts 284°